TimeCDT,TemperatureF,Dew PointF,Humidity,Sea Level PressureIn,VisibilityMPH,Wind Direction,Wind SpeedMPH,Gust SpeedMPH,PrecipitationIn,Events,Conditions,WindDirDegrees,DateUTC
12:52 AM,84.9,63.0,48,30.03,10.0,Calm,Calm,-,N/A,,Clear,0,2013-08-22 05:52:00
1:52 AM,84.0,62.1,47,30.02,10.0,Calm,Calm,-,N/A,,Mostly Cloudy,0,2013-08-22 06:52:00
2:52 AM,82.0,63.0,52,30.01,10.0,South,5.8,-,N/A,,Clear,180,2013-08-22 07:52:00
3:52 AM,82.0,64.0,54,30.02,10.0,South,10.4,-,N/A,,Clear,190,2013-08-22 08:52:00
4:52 AM,81.0,64.9,58,30.03,10.0,South,6.9,-,N/A,,Clear,190,2013-08-22 09:52:00
5:52 AM,81.0,64.9,58,30.04,10.0,Calm,Calm,-,N/A,,Clear,0,2013-08-22 10:52:00
6:52 AM,79.0,64.9,62,30.06,10.0,Calm,Calm,-,N/A,,Scattered Clouds,0,2013-08-22 11:52:00
7:52 AM,82.0,66.0,58,30.07,10.0,ESE,3.5,-,N/A,,Mostly Cloudy,110,2013-08-22 12:52:00
8:52 AM,84.0,66.9,56,30.08,10.0,South,6.9,-,N/A,,Scattered Clouds,170,2013-08-22 13:52:00
9:52 AM,89.1,66.0,46,30.08,10.0,SSW,8.1,-,N/A,,Scattered Clouds,200,2013-08-22 14:52:00
10:52 AM,93.0,64.0,38,30.08,10.0,SSE,12.7,-,N/A,,Scattered Clouds,160,2013-08-22 15:52:00
11:52 AM,95.0,64.0,36,30.07,10.0,South,10.4,-,N/A,,Scattered Clouds,190,2013-08-22 16:52:00
12:52 PM,97.0,63.0,32,30.04,10.0,Variable,6.9,-,N/A,,Scattered Clouds,0,2013-08-22 17:52:00
1:52 PM,99.0,62.1,30,30.02,10.0,SSW,8.1,-,N/A,,Scattered Clouds,210,2013-08-22 18:52:00
2:52 PM,97.0,61.0,30,30.00,10.0,South,9.2,-,N/A,,Mostly Cloudy,180,2013-08-22 19:52:00
3:52 PM,100.0,62.1,29,29.97,10.0,SE,8.1,18.4,N/A,,Mostly Cloudy,130,2013-08-22 20:52:00
4:52 PM,99.0,60.1,28,29.95,10.0,South,5.8,-,N/A,,Mostly Cloudy,190,2013-08-22 21:52:00
5:52 PM,100.0,60.1,27,29.93,10.0,Variable,3.5,-,N/A,,Mostly Cloudy,0,2013-08-22 22:52:00
6:52 PM,98.1,60.1,28,29.92,10.0,SSE,9.2,-,N/A,,Partly Cloudy,160,2013-08-22 23:52:00
7:52 PM,96.1,60.1,30,29.93,10.0,SE,4.6,-,N/A,,Partly Cloudy,140,2013-08-23 00:52:00
8:52 PM,93.9,61.0,33,29.95,10.0,ESE,6.9,-,N/A,,Partly Cloudy,120,2013-08-23 01:52:00
9:52 PM,93.0,62.1,36,29.97,10.0,SSE,6.9,-,N/A,,Scattered Clouds,150,2013-08-23 02:52:00
10:52 PM,91.0,62.1,38,29.98,10.0,SSE,9.2,-,N/A,,Partly Cloudy,150,2013-08-23 03:52:00
11:52 PM,90.0,63.0,40,29.99,10.0,SSE,5.8,-,N/A,,Mostly Cloudy,150,2013-08-23 04:52:00